Starlink 31783

operational
NORAD ID: 59750 Int'l Des: 2024-090 Owner: SPXS Country: US Constellation: starlink
LEOCIRCULAR

About Starlink 31783

Description loading...

Live Position

Loading 3D Globe...

Upcoming Passes

Altitude History

Altitude vs Time

uPlot chart will show altitude changes over time

Two-Line Element Set

1 59750U 24090W 25350.24215948 .00002217 00000-0 90045-4 0 9995
2 59750 43.0035 295.1303 0001445 261.1097 98.9591 15.27585158 90665
Epoch: Dec 16, 2025 • Age: 21 hours

Current Status

Altitude 485.5 km
Velocity 7.63 km/s
Sub-Earth Point 36.04°N, 67.74°W
Launch Date May 13, 2024
Age 1.5 years
Type internet

Technical Details

Classification Payload
Mass 730.00 kg
Dry Mass 700.00 kg
Total Mass 730.00 kg
Length 0.30 m
Diameter 4.10 m
Span 29.00 m
Shape Box + pan
Manufacturer SPXS
Bus Type Starlink V2M
Phase Status In Orbit
Owner/State SPXS/US

Large Constellations

Loading constellations...